Tracking 20242 objects as of 24-Jan-2020
HD Live streaming from Space Station
objects crossing your sky now

SL-12 DEB

Track SL-12 DEB now!
10-day predictions


NORAD ID: 43686
Int'l Code: 2010-007AL
Perigee: 713.2 km
Apogee: 18,838.7 km
Inclination: 65.0 °
Period: 340.3 minutes
Semi major axis: 16146 km
RCS: Unknown
Launch date: March 1, 2010
Source: Commonwealth of Independent States (former USSR) (CIS)
Launch site: TYURATAM MISSILE AND SPACE COMPLEX (TTMTR)

Note: This is SATELLITE DEBRIS
aabbcc
Your satellite tracking list
Your tracking list is empty




NASA's NSSDC Master Catalog

Two Line Element Set (TLE):
1 43686U 10007AL  20012.92473209  .00000016  00000-0  26468-3 0  9992
2 43686  64.9613 339.9895 5612659  31.6611 352.3503  4.23122314 48517
Source of the keplerian elements: AFSPC